Weather History for Gulfport, MS

Change the Weather History Date:

Thursday, December 20, 2012

  Actual Average Record
Temperature  
Mean Temperature 58 °F -  
Max Temperature 70 °F 63 °F 76 °F (1967)
Min Temperature 43 °F 46 °F 21 °F (1996)
Degree Days  
Heating Degree Days 8    
Growing Degree Days 8 (Base 50)    
Moisture  
Dew Point 54 °F    
Average Humidity 79    
Maximum Humidity 100    
Minimum Humidity 37    
Precipitation  
Precipitation 0.16 in - - ()
Sea Level Pressure  
Sea Level Pressure 29.94 in    
Wind  
Wind Speed 13 mph (WSW)    
Max Wind Speed 23 mph    
Max Gust Speed 41 mph    
Visibility 6 miles    
Events Rain    
Averages and records for this station are not official NWS values.
T = Trace of Precipitation, MM = Missing Value Source: NWS Daily Summary

Daily Weather History Graph

Daily Weather History Graph

Search for Another Location

Airport:

Trip Planner

Search our weather history database for the weather conditions in past years. The results will help you decide how hot, cold, wet, or windy it might be!

Date:

Astronomy

Dec. 20, 2012 Rise Set
Actual Time 6:48 AM CST 4:59 PM CST
Civil Twilight 6:22 AM CST 5:26 PM CST
Nautical Twilight 5:52 AM CST 5:56 PM CST
Astronomical Twilight 5:22 AM CST 6:25 PM CST
Moon 11:57 AM CST (12/20) No Moon Set
Length of Visible Light 11h 04m
Length of Day
10h 11m
First Quarter, 55% of the Moon is Illuminated
Dec 20
First Quarter
Dec 28
Full
Jan 4
Last Quarter
Jan 11
New
Jan 18
First Quarter

Hourly Weather History & Observations

Time (CST) Temp. Windchill Dew Point Humidity Pressure Visibility Wind Dir Wind Speed Gust Speed Precip Events Conditions
12:19 AM 66.2 °F - 66.2 °F 100% 29.88 in 6.0 mi SSE 16.1 mph 23.0 mph 0.00 in   Overcast
12:33 AM 66.2 °F - 66.2 °F 100% 29.88 in 6.0 mi SSE 15.0 mph 23.0 mph 0.00 in   Overcast
12:53 AM 66.9 °F - 66.0 °F 97% 29.87 in 5.0 mi SSE 15.0 mph 23.0 mph 0.00 in   Overcast
1:53 AM 66.9 °F - 66.0 °F 97% 29.87 in 4.0 mi South 12.7 mph - 0.02 in   Overcast
2:36 AM 66.2 °F - 66.2 °F 100% 29.87 in 1.8 mi South 10.4 mph 18.4 mph N/A   Overcast
2:53 AM 66.9 °F - 66.0 °F 97% 29.86 in 2.0 mi South 11.5 mph 18.4 mph N/A   Overcast
3:14 AM 66.2 °F - 66.2 °F 100% 29.86 in 1.8 mi South 12.7 mph 19.6 mph N/A   Overcast
3:23 AM 66.2 °F - 66.2 °F 100% 29.86 in 3.0 mi South 12.7 mph 19.6 mph N/A   Overcast
3:53 AM 68.0 °F - 66.9 °F 96% 29.84 in 3.0 mi South 11.5 mph 20.7 mph N/A   Overcast
4:01 AM 66.2 °F - 66.2 °F 100% 29.84 in 2.0 mi South 11.5 mph - N/A   Overcast
4:20 AM 68.0 °F - 66.2 °F 94% 29.85 in 1.5 mi South 11.5 mph 19.6 mph N/A   Overcast
4:33 AM 68.0 °F - 68.0 °F 100% 29.86 in 2.0 mi South 10.4 mph - N/A   Overcast
4:53 AM 68.0 °F - 68.0 °F 100% 29.86 in 1.5 mi South 11.5 mph 18.4 mph N/A   Overcast
5:12 AM 68.0 °F - 68.0 °F 100% 29.85 in 3.0 mi SSW 10.4 mph 21.9 mph N/A   Overcast
5:53 AM 70.0 °F - 69.1 °F 97% 29.84 in 6.0 mi South 13.8 mph 26.5 mph N/A   Overcast
6:40 AM 68.0 °F - 68.0 °F 100% 29.84 in 1.5 mi SSW 11.5 mph 21.9 mph 0.02 in   Overcast
6:53 AM 68.0 °F - 68.0 °F 100% 29.85 in 1.5 mi SSW 9.2 mph 24.2 mph 0.02 in   Overcast
7:01 AM 69.8 °F - 68.0 °F 94% 29.85 in 3.0 mi SSW 10.4 mph 18.4 mph N/A   Overcast
7:09 AM 69.8 °F - 68.0 °F 94% 29.84 in 1.8 mi SSW 10.4 mph 18.4 mph N/A   Overcast
7:45 AM 69.8 °F - 68.0 °F 94% 29.85 in 5.0 mi SSW 10.4 mph 18.4 mph N/A   Overcast
7:53 AM 69.1 °F - 68.0 °F 96% 29.85 in 5.0 mi SSW 10.4 mph 19.6 mph N/A   Overcast
8:53 AM 70.0 °F - 68.0 °F 93% 29.86 in 7.0 mi Variable 6.9 mph - 0.00 in   Overcast
9:05 AM 57.2 °F - 53.6 °F 88% 29.92 in 2.0 mi NW 23.0 mph 41.4 mph 0.03 in Rain Rain
9:17 AM 53.6 °F - 51.8 °F 94% 29.92 in 7.0 mi NW 16.1 mph 32.2 mph 0.12 in   Overcast
9:24 AM 55.4 °F - 51.8 °F 88% 29.92 in 9.0 mi NW 15.0 mph - 0.12 in   Mostly Cloudy
9:53 AM 55.9 °F - 48.9 °F 77% 29.92 in 10.0 mi NW 13.8 mph 25.3 mph 0.12 in   Mostly Cloudy
10:53 AM 59.0 °F - 46.9 °F 64% 29.91 in 10.0 mi WNW 15.0 mph 24.2 mph N/A   Partly Cloudy
11:53 AM 62.1 °F - 44.1 °F 52% 29.90 in 10.0 mi NW 19.6 mph 33.4 mph N/A   Partly Cloudy
12:53 PM 61.0 °F - 46.0 °F 58% 29.89 in 10.0 mi WNW 16.1 mph 23.0 mph N/A   Partly Cloudy
1:53 PM 62.1 °F - 39.0 °F 43% 29.90 in 10.0 mi WNW 20.7 mph 29.9 mph N/A   Clear
2:53 PM 60.1 °F - 37.0 °F 42% 29.94 in 10.0 mi WNW 17.3 mph 31.1 mph N/A   Clear
3:53 PM 57.0 °F - 32.0 °F 39% 29.99 in 10.0 mi NW 17.3 mph 25.3 mph N/A   Clear
4:53 PM 54.0 °F - 28.0 °F 37% 30.03 in 10.0 mi NW 16.1 mph 33.4 mph N/A   Clear
5:53 PM 51.1 °F - 30.9 °F 46% 30.08 in 10.0 mi NW 12.7 mph 20.7 mph N/A   Clear
6:53 PM 50.0 °F - 30.9 °F 48% 30.14 in 10.0 mi WNW 10.4 mph - N/A   Clear
7:53 PM 48.9 °F - 30.9 °F 50% 30.19 in 10.0 mi WNW 6.9 mph - N/A   Clear
8:53 PM 48.0 °F - 30.0 °F 50% 30.22 in 10.0 mi NW 13.8 mph - N/A   Clear
9:53 PM 46.0 °F 39.6 °F 27.0 °F 47% 30.24 in 10.0 mi NW 15.0 mph 20.7 mph N/A   Clear
10:53 PM 45.0 °F 40.1 °F 27.0 °F 49% 30.25 in 10.0 mi WNW 9.2 mph - N/A   Clear
11:53 PM 43.0 °F 38.2 °F 28.0 °F 56% 30.26 in 10.0 mi West 8.1 mph - N/A   Clear